Погода в Махачкале

Погода в Махачкале : погода сейчас, прогноз погоды и архив. Всё, что Вы хотите узнать о погоде в Махачкале!

Поиск расширенной информации на нашем сайте:

Другие новости

Новости СМИ2

Главная страница сайта

Новости сайта

03.07.2017

Напоминаем, что на нашем специализированном сайте Метеоцентр.Азия вы можете получить высокодетализированные автоматические прогнозы погоды по пунктам России, СНГ и мира в авиационном формате (включающие направление и скорость ветра, видимость, явления погоды, количество и форму облачности, нижнюю и верхнюю границу облачности).

Рекомендуем: Люстра хрустальная интернет.

Погода в Махачкале - сегодня

Время (UTC), дата Ветер
(°,м/с) 
Видим.   Явления Облачность Т
(°С)
Тd
(°С)
f(%) Тe
(°С)
Pmin
(гПа)
dP
(гПа)
Po
(мм)
O2
(г/м3)
Тmin Tmax R s Состояние
почвы
09 19.07.17 110 (В) 20000 м    9/6 600 м кучево-дожд., средняя, верхняя 
[Cb calv|Ac trans|Ci fib]
+25.4 +20.3 73 +44  1007.1  -0.9  757  274  +20.4        замёрзшая 
12 19.07.17 110 (В) 4{12}  20000 м    8/6 600 м кучево-дожд., средняя, верхняя 
[Cb calv|Ac trans|Ci fib]
+26.4 +20.2 69 +45  1005.7  -1.5  756  273           
15 19.07.17 110 (В) 4{11}  20000 м    8/3 600 м кучево-дожд., средняя, верхняя 
[Cb calv|Ac trans|Ci fib]
+26.3 +17.1 57 +39  1004.6  -1  755  274    +28.1       
18 19.07.17 120 (ЮВ) 20000 м    8/0 средняя, верхняя 
[Ac trans|Ci fib]
+24.7 +16.3 60 +35  1007.3  2.7  757  276          замёрзшая 
21 19.07.17 280 (З) 20000 м    8/3 600 м кучево-дожд., средняя, верхняя 
[Cb calv|Ac trans|Ci fib]
+26.3 +18.8 63 +42  1008.8  1.4  758  274           
00 20.07.17 350 (С) 10 км  гроза, ливневой дождь  10/10 600 м кучево-дожд. 
[Cb cap]
+25.2 +19 69 +41  1006.8  -2  757  275          замёрзшая 
03 20.07.17 030 (СВ) 20000 м  {гроза}  4/0 средняя, верхняя 
[Ac trans|Ci fib]
+25.8 +17.9 62 +40  1006.2  -0.5  756  274  +24.2    0.4     
06 20.07.17 110 (В) 10 км  {гроза}  3/0 средняя, верхняя 
[Ac cast|Ci fib]
+26.1 +19.9 69 +44  1006.6  0.4  757  273           
09 20.07.17 120 (ЮВ) 10 км    ясно 
+27.8 +21.3 68 +49  1006.2  -0.4  756  271           
12 20.07.17 090 (В) н/о  {туман}  н/о 
[Cb cap|Ac inh|Cs]
+27.3 +21.5 71 +453  1005.3    75  20           
15 20.07.17 110 (В) 10 км    4/0 средняя, верхняя 
[Ac cast|Ci fib]
+25.8 +21.2 76 +47  1005  -0.3  755  273    +28.6       
18 20.07.17 120 (ЮВ) 20000 м    4/0 средняя, верхняя 
[Ac cast|Ci fib]
+24.1 +21.5 85 +46  1006.4  1.5  756  275           
21 20.07.17 130 (ЮВ) 20000 м    6/0 средняя, верхняя 
[Ac cast|Ci fib]
+24.2 +19.5 75 +41  1006.6  1.5  756  275           
00 21.07.17 240 (ЮЗ) 20000 м    ясно 
+21.9 +18.6 82 +37  1007  0.5  757  278           
03 21.07.17 280 (З) 20000 м    3/0 средняя, верхняя 
[Ac cast|Ci fib]
+25.6 +17.9 62 +39  1008.1  758  275  +21.9        сухая 
06 21.07.17 310 (СЗ) 10 км    4/0 верхняя 
[Ci fib]
+29.7 +16 44 +40  1009.4  1.3  759  272           
09 21.07.17 300 (СЗ) 6-11{11}  10 км    ясно 
+33.2 +14.4 32 +41  1009.5  0.1  759  270           
12 21.07.17 310 (СЗ) 5{12}  10 км    ясно 
+35 +14.3 29 +42  1009.1  -0.4  758  268           
15 21.07.17 290 (З) н/о    н/о 
+34.2 +15.2 32 +43  1009.2  0.1  758  269          полностью
покрыта
пылью 
18 21.07.17 110 (В) 10 км    ясно кучево-дожд., средняя, верхняя 
[Cb cap|Ac inh|Cs]
+27.3 +19.6 63 +398  1010.7    75  21           
21 21.07.17 250 (З) 10 км    ясно 
+28.4 +15.3 45 +37  1010.5  0.1  759  274           
00 22.07.17 270 (З) 10 км    ясно 
+28.4 +14.4 42 +36  1011.1  760  274           
03 22.07.17 280 (З) 10 км    ясно 
+27.7 +14.7 45 +35  1011.8  0.8  760  275  +25.7        замёрзшая 
06 22.07.17 320 (СЗ) 20000 м    6/0 средняя, верхняя 
[Ac cast|Ci fib]
+32.2 +13.9 33 +39  1011.9  760  271          замёрзшая 
09 22.07.17 060 (СВ) 20000 м    8/0 средняя, верхняя 
[Ac cast|Ci fib]
+29.7 +23.1 68 +56  1011.5  -0.4  760  270           
Время (UTC), дата Ветер
(°,м/с) 
Видим.   Явления Облачность Т
(°С)
Тd
(°С)
f(%) Тe
(°С)
Pmin
(гПа)
dP
(гПа)
Po
(мм)
O2
(г/м3)
Тmin Tmax R s Состояние
почвы

Для получения пояснительной информации подведите курсор к названию столбца.

ПОГОДА в Махачкале - архив

Всё, что Вы хотите узнать о погоде в Махачкале - удобно и подробно!

Выберите нужную дату (начиная с 1 января 2015* года) и нажмите кнопку "Найти".
Будут отображены архивные сводки погоды по пункту Махачкала, начиная с указанной даты.


Отображать данные в формате CSV (для использования в таблицах Excel)


Внимание! Наш архив погоды предназначен исключительно для личного некоммерческого использования в познавательных целях. Если Вам необходимы официальные справки о состоянии погоды (для производственных, юридических, коммерческих и т.п. целей), обращайтесь в органы Росгидромета.

*Примечание: данная дата относится к архиву по метеостанциям СССР (Россия, СНГ, Балтия).
Архив по метеостанциям Зарубежной Европы и Азии (кроме Китая) хранится 10 дней, по другим регионам земного шара (Китай, Африка, Америка, Австралия, Океания) - 1 день.

Махачкала - район местоположения метеостанции


Название, широта, долгота, высота метеостанции:
Махачкала 42.8°ш. 47.6°д. 32 м над ур. моря [Российская Федерация]

Дополнительная информация

В oтличие oт бoльшинства пoгoдных сайтoв мы публикуем пoдрoбную метеoинфoрмацию в детальнoм прoфессиoнальнoм фoрмате.

Характеристики температуры и влажнoсти вoздуха измеряются на высoте 2 м в тени вдали oт зданий и деревьев.
Скoрoсть ветра измеряется на высoте 10 м (на урoвне рoста челoвека скoрoсть ветра ниже в 1.5-2 раза). Если метеoстанция нахoдится в гoрoде или в лесу, тo скoрoсть ветра занижена на 2-4 м/с пo сравнению с oткрытым местoм. Скoрoсть ветра над акватoриями крупных рек и oзёр, а также на вершинах хoлмoв на 2-5 м/с выше, чем в oбычных услoвиях.
Атмoсфернoе давление в разных тoчках местнoсти мoжет значительнo oтличаться oт давления на метеoстанции, в зависимoсти oт услoвий рельефа (при пoдъёме на 10 м давление пoнижается примернo на 1 мм рт.ст.).